Nenana, AK

10:48 PM AKDT en Octubre 20, 2018 (GMT -0800)
Nenana Municipal

Tiempo Historia de PANN - Agosto, 2018

Change the Weather History Date:

Viernes, Agosto 10, 2018

  Actual Average Record
Temperature  
Temperatura media 58 ° F -  
Temperatura máxima 66 ° F 67 ° F 83 ° F (2005)
Temperatura mínima 48 ° F 45 ° F 39 ° F (2007)
Degree Days  
Grados día de calefacción 7    
Growing Degree Days 8 (Base 50)    
Moisture  
Punto de rocío 45 ° F    
Average Humidity 70    
Maximum Humidity 100    
Minimum Humidity 38    
Precipitación  
Precipitación 0.00 pul - - ()
Presión al nivel del mar  
Presión al nivel del mar 29.94 pul    
Viento  
Velocidad del viento 1 mph (Norte)    
Velocidad máxima del viento 7 mph    
Max Gust Speed -    
Visibilidad 10 Millas    
Eventos Lluvia    
Averages and records for this station are not official NWS values.
T = Trace of Precipitation, MM = Missing Value Source: NWS Daily Summary

Daily Weather History Graph

Daily Weather History Graph

Search for Another Location

Airport or City:

Astronomía

Aug. 10, 2018 Salida Puesta
Hora real 5:29 AM AKDT 10:31 PM AKDT
Crepúsculo civil 4:15 AM AKDT 11:43 PM AKDT
Crepúsculo náutico 2:34 AM AKDT 1:29 AM AKDT
Crepúsculo astronómico Sun does not rise Sun does not rise
Luna 4:06 AM AKDT (8/10) 10:30 PM AKDT (8/10)
Horas de luz 19h 28m
Horas de luz
17h 02m
Creciente menguante, 1% of the Moon is Illuminated
Ago 10
Creciente menguante
Ago 11
Nueva
Ago 17
Cuarto creciente
Ago 26
Luna llena
Sep 2
Cuarto menguante

Hourly Weather History & Observations

Hora (AKDT) Temp. Punto de rocío Humedad Presión Visibilidad Wind Dir Velocidad del viento Velocidad de ráfagas Precip Eventos Condiciones
12:53 AM 48.0 ° F 45.0 ° F 89% 29.90 pul 10.0 mi Sin viento Sin viento - N/A   Nublado
1:53 AM 48.9 ° F 46.9 ° F 93% 29.91 pul 10.0 mi Sin viento Sin viento - 0.00 pul Lluvia Lluvia débil
2:53 AM 50.0 ° F 45.0 ° F 83% 29.92 pul 10.0 mi Sin viento Sin viento - 0.00 pul   Nublado
3:53 AM 48.0 ° F 45.0 ° F 89% 29.94 pul 10.0 mi Sin viento Sin viento - N/A   Nublado
4:53 AM 48.0 ° F 45.0 ° F 89% 29.94 pul 10.0 mi Sin viento Sin viento - N/A   Nublado
5:53 AM 48.9 ° F 45.0 ° F 86% 29.95 pul 10.0 mi Sin viento Sin viento - N/A   Nublado
6:53 AM 48.0 ° F 45.0 ° F 89% 29.95 pul 10.0 mi Sin viento Sin viento - N/A   Nublado
7:53 AM 52.0 ° F 46.0 ° F 80% 29.96 pul 10.0 mi Sin viento Sin viento - N/A   Nubes dispersas
8:53 AM 53.1 ° F 46.9 ° F 80% 29.96 pul 10.0 mi Sin viento Sin viento - N/A   Nublado
9:53 AM 54.0 ° F 48.0 ° F 80% 29.97 pul 10.0 mi Variable 4.6 mph - N/A   Nublado
10:53 AM 55.9 ° F 48.0 ° F 75% 29.97 pul 10.0 mi Sin viento Sin viento - N/A   Nublado
11:53 AM 59.0 ° F 46.0 ° F 62% 29.97 pul 10.0 mi Sin viento Sin viento - N/A   Nublado
12:53 PM 61.0 ° F 43.0 ° F 52% 29.96 pul 10.0 mi NO 3.5 mph - N/A   Nubes dispersas
1:53 PM 64.0 ° F 42.1 ° F 45% 29.96 pul 10.0 mi Variable 4.6 mph - N/A   Nubes dispersas
2:53 PM 62.1 ° F 42.1 ° F 48% 29.95 pul 10.0 mi NNO 5.8 mph - N/A   Muy nublado
3:53 PM 63.0 ° F 41.0 ° F 45% 29.94 pul 10.0 mi Sur 4.6 mph - N/A   Muy nublado
4:53 PM 64.0 ° F 39.0 ° F 40% 29.93 pul 10.0 mi Variable 4.6 mph - N/A   Nubes dispersas
5:53 PM 66.0 ° F 39.9 ° F 38% 29.91 pul 10.0 mi Variable 6.9 mph - N/A   Despejado
6:53 PM 66.0 ° F 41.0 ° F 40% 29.91 pul 10.0 mi Norte 4.6 mph - N/A   Despejado
7:53 PM 64.9 ° F 42.1 ° F 43% 29.91 pul 10.0 mi NNE 5.8 mph - N/A   Despejado
8:53 PM 63.0 ° F 44.1 ° F 50% 29.90 pul 10.0 mi Norte 3.5 mph - N/A   Despejado
9:53 PM 55.9 ° F 46.0 ° F 69% 29.91 pul 10.0 mi Sin viento Sin viento - N/A   Despejado
10:53 PM 51.1 ° F 46.0 ° F 83% 29.90 pul 10.0 mi Sin viento Sin viento - N/A   Despejado
11:53 PM 48.9 ° F 45.0 ° F 86% 29.90 pul 10.0 mi Sin viento Sin viento - N/A   Parcialmente nublado